Back to catalog

FENGYUN 1C DEB *

AliveSSO
NORAD 47102·DEBRIS·🇨🇳 China

Launched May 10, 1999 from Taiyuan Satellite Launch Center

Loading…

Next Passes (next 24 hours)

TLE

StaleSource: Space-Track

Epoch: Aug 31, 2026, 00:57 UTC

1 47102U 99025FCA 26243.04024484  .00001657  00000-0  77077-3 0  9992
2 47102  98.4457 173.8718 0118055  17.1023  43.3369 14.18214866656435

Track FENGYUN 1C DEB * in real time with AllMySat

Download on the App Store